�N����,����,�~����,�C��,���x,�C��,����,���ϕ���,�ő�u�ԕ���,�ő厞����,���˗�,�I�_���x,�n�����x,�ő啗���N��,DTYPE
"23/10/12","00:10",0.0,13.8,84.1,1016.6,287.1,1.5,2.2,304.8,0.00,11.2,18.5,"00:07:02",1
"23/10/12","00:20",0.0,13.5,84.6,1017.1,292.2,1.0,1.6,320.7,0.00,11.0,18.6,"00:10:40",1
"23/10/12","00:30",0.0,13.4,85.3,1016.8,310.4,1.3,2.4,342.7,0.00,11.0,18.6,"00:28:16",1
"23/10/12","00:40",0.0,13.5,85.9,1016.8,317.6,1.8,3.2,317.9,0.00,11.2,18.5,"00:38:56",1
"23/10/12","00:50",0.0,13.7,86.1,1016.4,306.5,1.8,3.1,304.1,0.00,11.5,18.5,"00:44:48",1
"23/10/12","01:00",0.0,13.5,86.2,1017.1,291.0,0.7,2.4,333.7,0.00,11.3,18.6,"00:50:08",1
"23/10/12","01:10",0.0,13.4,86.6,1016.6,316.9,1.8,2.1,320.6,0.00,11.3,18.5,"01:07:12",1
"23/10/12","01:20",0.0,13.6,86.8,1017.1,321.6,2.6,3.6,322.6,0.00,11.5,18.3,"01:13:28",1
"23/10/12","01:30",0.0,13.6,86.8,1016.6,315.0,2.6,5.1,332.2,0.00,11.5,18.5,"01:29:38",1
"23/10/12","01:40",0.0,13.7,86.7,1017.1,316.0,2.7,4.2,315.0,0.00,11.6,18.5,"01:39:02",1
"23/10/12","01:50",0.0,13.6,86.8,1016.8,317.0,2.6,4.3,321.5,0.00,11.5,18.3,"01:45:14",1
"23/10/12","02:00",0.0,13.5,86.8,1016.8,320.7,2.5,3.7,338.7,0.00,11.4,18.2,"01:54:26",1
"23/10/12","02:10",0.0,13.6,86.8,1016.8,314.5,2.2,3.5,306.7,0.00,11.5,18.4,"02:04:00",1
"23/10/12","02:20",0.0,13.5,86.9,1016.8,314.6,2.3,3.3,315.0,0.00,11.4,18.4,"02:12:10",1
"23/10/12","02:30",0.0,13.4,87.0,1016.8,314.9,2.2,2.9,320.5,0.00,11.3,18.1,"02:21:34",1
"23/10/12","02:40",0.0,13.1,87.3,1017.1,322.2,1.8,2.5,326.8,0.00,11.1,18.2,"02:37:10",1
"23/10/12","02:50",0.0,13.3,87.7,1017.1,294.3,1.6,2.4,248.6,0.00,11.3,18.2,"02:49:50",1
"23/10/12","03:00",0.0,13.6,87.3,1016.6,267.7,2.0,2.9,245.8,0.00,11.6,18.1,"02:54:28",1
"23/10/12","03:10",0.0,13.6,87.2,1017.1,299.0,1.7,2.8,315.8,0.00,11.6,18.2,"03:07:58",1
"23/10/12","03:20",0.0,13.6,86.9,1016.8,327.6,1.3,2.1,340.2,0.00,11.5,18.1,"03:14:12",1
"23/10/12","03:30",0.0,13.4,87.0,1016.6,313.1,1.8,2.6,323.5,0.00,11.3,17.9,"03:23:02",1
"23/10/12","03:40",0.0,13.1,87.2,1016.8,312.0,1.7,1.9,308.5,0.00,11.1,17.9,"03:34:36",1
"23/10/12","03:50",0.0,13.0,87.6,1016.6,317.6,2.0,2.4,319.5,0.00,11.0,18.2,"03:47:12",1
"23/10/12","04:00",0.0,13.1,88.0,1016.8,311.2,2.5,3.1,307.5,0.00,11.2,18.1,"03:58:22",1
"23/10/12","04:10",0.0,13.1,88.1,1016.8,310.5,2.1,3.2,318.7,0.00,11.2,17.9,"04:09:06",1
"23/10/12","04:20",0.0,13.1,88.1,1017.1,314.0,1.8,2.8,302.1,0.00,11.2,18.0,"04:14:42",1
"23/10/12","04:30",0.0,13.1,88.1,1017.1,326.2,1.6,2.0,297.6,0.00,11.2,17.9,"04:25:10",1
"23/10/12","04:40",0.0,13.0,88.0,1017.3,310.9,2.0,2.9,315.0,0.00,11.1,18.0,"04:33:04",1
"23/10/12","04:50",0.0,12.8,88.2,1017.1,305.1,2.2,2.7,322.4,0.00,10.9,17.8,"04:44:08",1
"23/10/12","05:00",0.0,12.5,88.3,1017.1,302.0,1.7,2.4,319.6,0.00,10.7,18.0,"04:58:10",1
"23/10/12","05:10",0.0,12.3,88.7,1017.1,314.8,2.2,2.8,318.4,0.00,10.5,17.8,"05:06:34",1
"23/10/12","05:20",0.0,12.2,89.1,1017.1,321.8,1.7,2.0,303.1,0.00,10.5,17.9,"05:10:08",1
"23/10/12","05:30",0.0,11.7,89.6,1017.3,284.9,1.2,1.8,335.9,0.00,10.1,17.7,"05:20:12",1
"23/10/12","05:40",0.0,11.3,90.2,1017.8,299.2,1.7,2.2,315.7,0.00,9.8,17.7,"05:33:30",1
"23/10/12","05:50",0.0,11.1,90.6,1017.1,324.9,1.8,2.5,323.3,0.00,9.7,17.8,"05:43:50",1
"23/10/12","06:00",0.0,10.9,91.0,1017.1,299.3,1.5,2.5,317.8,0.00,9.5,17.7,"05:58:40",1
"23/10/12","06:10",0.0,10.6,91.2,1017.1,301.3,1.5,1.9,309.5,0.00,9.3,17.6,"06:02:50",1
"23/10/12","06:20",0.0,11.1,91.8,1017.3,313.9,1.5,2.0,330.3,0.00,9.9,17.7,"06:14:56",1
"23/10/12","06:30",0.0,11.5,92.0,1017.3,310.3,2.1,3.2,328.3,0.00,10.3,17.7,"06:24:36",1
"23/10/12","06:40",0.0,12.0,92.2,1017.5,269.6,0.3,1.6,293.3,0.00,10.8,17.6,"06:30:16",1
"23/10/12","06:50",0.0,12.3,92.5,1017.3,284.3,0.7,1.6,312.1,0.01,11.2,17.5,"06:49:44",1
"23/10/12","07:00",0.0,13.0,92.6,1017.8,305.0,1.1,1.8,326.3,0.01,11.9,17.6,"06:50:16",1
"23/10/12","07:10",0.0,13.5,92.1,1017.8,329.4,2.0,3.6,339.4,0.03,12.3,17.5,"07:06:10",1
"23/10/12","07:20",0.0,14.1,91.1,1017.8,323.5,2.3,3.9,338.2,0.05,12.7,17.4,"07:19:58",1
"23/10/12","07:30",0.0,14.8,89.5,1018.0,327.6,2.3,4.1,328.4,0.07,13.1,17.4,"07:20:16",1
"23/10/12","07:40",0.0,15.5,87.1,1018.0,325.5,2.0,3.6,347.5,0.09,13.4,17.6,"07:31:36",1
"23/10/12","07:50",0.0,16.6,84.3,1018.0,323.0,1.3,3.2,337.7,0.11,14.0,17.4,"07:42:00",1
"23/10/12","08:00",0.0,17.3,80.3,1018.2,325.3,1.3,2.7,350.9,0.13,13.9,17.5,"07:55:44",1
"23/10/12","08:10",0.0,18.1,76.9,1018.0,353.2,0.8,2.1,322.9,0.16,14.0,17.5,"08:05:12",1
"23/10/12","08:20",0.0,18.6,73.2,1017.5,289.6,1.1,3.2,243.3,0.18,13.8,17.4,"08:16:56",1
"23/10/12","08:30",0.0,19.2,71.4,1017.8,223.0,0.6,1.9,218.0,0.20,13.9,17.6,"08:25:04",1
"23/10/12","08:40",0.0,19.5,71.0,1017.3,190.6,0.7,1.7,137.5,0.23,14.1,17.7,"08:36:56",1
"23/10/12","08:50",0.0,20.0,69.4,1017.3,133.7,0.7,1.6,178.3,0.25,14.3,17.3,"08:41:36",1
"23/10/12","09:00",0.0,20.4,67.4,1017.3,176.8,0.6,1.6,124.6,0.27,14.2,17.5,"08:59:36",1
"23/10/12","09:10",0.0,20.5,65.9,1017.1,193.7,1.2,2.6,201.4,0.29,14.0,17.6,"09:00:02",1
"23/10/12","09:20",0.0,20.9,66.2,1016.8,185.8,1.0,2.2,210.5,0.31,14.4,17.7,"09:10:08",1
"23/10/12","09:30",0.0,21.6,64.1,1016.8,142.3,0.6,1.6,103.5,0.33,14.6,17.8,"09:28:16",1
"23/10/12","09:40",0.0,21.9,60.3,1016.6,224.1,0.7,2.0,296.0,0.34,13.9,17.7,"09:37:28",1
"23/10/12","09:50",0.0,22.6,59.6,1016.1,170.1,0.7,2.4,103.4,0.36,14.4,17.9,"09:46:56",1
"23/10/12","10:00",0.0,22.8,57.1,1015.9,54.1,1.3,4.2,22.1,0.37,13.9,17.8,"09:51:52",1
"23/10/12","10:10",0.0,23.2,54.7,1015.6,146.5,1.0,1.9,119.4,0.38,13.6,18.2,"10:00:08",1
"23/10/12","10:20",0.0,23.4,49.3,1015.9,4.1,1.5,4.3,351.5,0.40,12.2,18.0,"10:11:52",1
"23/10/12","10:30",0.0,23.2,48.7,1015.4,351.0,2.2,4.8,350.4,0.41,11.9,18.2,"10:22:16",1
"23/10/12","10:40",0.0,23.7,48.9,1015.4,342.5,1.6,4.3,348.7,0.42,12.4,18.3,"10:32:48",1
"23/10/12","10:50",0.0,23.4,48.9,1015.4,335.5,2.1,5.6,348.7,0.42,12.1,18.4,"10:49:20",1
"23/10/12","11:00",0.0,23.3,49.4,1015.9,342.2,2.5,5.1,338.0,0.44,12.2,18.5,"10:54:56",1
"23/10/12","11:10",0.0,23.5,48.7,1015.2,356.3,2.3,4.4,311.1,0.44,12.1,18.5,"11:08:48",1
"23/10/12","11:20",0.0,23.7,47.5,1015.2,339.2,2.2,5.0,353.6,0.44,11.9,18.5,"11:15:20",1
"23/10/12","11:30",0.0,23.7,46.8,1014.9,316.0,2.1,4.4,354.0,0.45,11.7,18.6,"11:23:52",1
"23/10/12","11:40",0.0,24.0,47.1,1014.7,309.3,1.7,4.8,347.8,0.45,12.1,18.9,"11:30:16",1
"23/10/12","11:50",0.0,24.1,45.7,1014.7,331.6,2.3,4.1,319.7,0.45,11.7,18.8,"11:42:24",1
"23/10/12","12:00",0.0,24.4,46.2,1014.5,348.3,2.1,4.8,344.3,0.45,12.1,19.1,"11:58:08",1
"23/10/12","12:10",0.0,24.1,42.9,1014.5,328.3,2.3,4.8,356.7,0.45,10.8,19.0,"12:01:20",1
"23/10/12","12:20",0.0,24.3,44.1,1014.5,317.9,2.7,5.5,341.3,0.45,11.4,19.2,"12:10:40",1
"23/10/12","12:30",0.0,24.7,45.2,1014.2,326.8,1.7,3.2,324.3,0.44,12.1,19.1,"12:20:08",1
"23/10/12","12:40",0.0,25.0,45.4,1014.0,330.3,2.0,4.2,336.6,0.44,12.4,19.3,"12:33:20",1
"23/10/12","12:50",0.0,24.8,44.4,1013.8,346.8,2.2,4.3,350.3,0.43,11.9,19.4,"12:41:12",1
"23/10/12","13:00",0.0,24.3,44.2,1013.5,339.1,2.8,5.8,336.4,0.42,11.4,19.2,"12:57:36",1
"23/10/12","13:10",0.0,24.3,44.8,1013.5,338.3,2.2,4.4,349.2,0.41,11.6,19.5,"13:07:28",1
"23/10/12","13:20",0.0,24.4,43.3,1013.5,351.2,2.6,4.5,0.3,0.39,11.2,19.5,"13:16:00",1
"23/10/12","13:30",0.0,24.5,43.4,1013.3,336.8,2.6,4.7,345.6,0.38,11.3,19.9,"13:27:12",1
"23/10/12","13:40",0.0,24.3,44.8,1013.3,341.0,2.6,5.2,0.3,0.37,11.6,19.7,"13:32:48",1
"23/10/12","13:50",0.0,24.0,44.0,1013.3,5.1,2.8,5.7,343.6,0.35,11.0,19.8,"13:40:32",1
"23/10/12","14:00",0.0,24.3,45.3,1013.3,351.0,2.6,5.2,349.5,0.34,11.8,19.9,"13:57:20",1
"23/10/12","14:10",0.0,23.9,45.0,1013.3,358.8,2.7,5.4,18.5,0.31,11.3,20.0,"14:08:40",1
"23/10/12","14:20",0.0,23.8,46.7,1013.0,344.9,2.8,6.2,344.4,0.30,11.8,19.9,"14:16:08",1
"23/10/12","14:30",0.0,23.5,45.1,1013.3,344.6,3.0,7.1,339.9,0.28,11.0,19.8,"14:29:36",1
"23/10/12","14:40",0.0,24.0,45.3,1013.0,347.3,2.3,6.8,330.2,0.26,11.5,19.9,"14:32:16",1
"23/10/12","14:50",0.0,23.8,46.1,1013.3,357.7,2.3,4.9,355.6,0.24,11.6,20.0,"14:44:00",1
"23/10/12","15:00",0.0,23.4,47.7,1013.5,13.5,2.8,5.5,36.5,0.22,11.7,19.9,"14:51:44",1
"23/10/12","15:10",0.0,23.4,47.9,1013.3,349.2,2.2,5.5,343.0,0.19,11.8,20.0,"15:04:24",1
"23/10/12","15:20",0.0,23.4,47.4,1013.5,351.5,2.3,5.5,335.0,0.17,11.6,20.2,"15:16:00",1
"23/10/12","15:30",0.0,23.0,49.1,1013.5,345.1,2.6,5.4,334.4,0.15,11.8,19.9,"15:24:08",1
"23/10/12","15:40",0.0,22.7,48.7,1013.5,351.0,2.7,5.2,328.2,0.13,11.4,19.9,"15:36:48",1
"23/10/12","15:50",0.0,22.5,49.5,1013.3,8.7,2.7,7.2,40.3,0.11,11.5,20.3,"15:45:36",1
"23/10/12","16:00",0.0,22.4,49.7,1013.5,352.5,2.3,5.1,349.3,0.09,11.4,20.1,"15:50:24",1
"23/10/12","16:10",0.0,22.0,50.3,1013.5,351.5,2.7,6.0,26.9,0.07,11.2,20.2,"16:01:44",1
"23/10/12","16:20",0.0,21.8,48.9,1013.8,341.9,2.3,5.0,333.7,0.05,10.6,20.1,"16:18:40",1
"23/10/12","16:30",0.0,21.3,51.8,1013.5,336.4,3.2,5.7,336.3,0.03,11.0,20.1,"16:27:28",1
"23/10/12","16:40",0.0,20.9,54.0,1013.3,340.6,3.4,5.6,339.0,0.02,11.3,20.2,"16:32:08",1
"23/10/12","16:50",0.0,20.4,56.2,1013.8,338.6,2.3,3.7,356.9,0.00,11.4,20.0,"16:40:48",1
"23/10/12","17:00",0.0,20.0,58.1,1013.8,339.4,1.6,2.9,359.0,0.00,11.6,20.0,"16:50:16",1
"23/10/12","17:10",0.0,19.7,60.1,1013.8,337.0,1.3,2.7,331.7,0.00,11.8,20.2,"17:06:40",1
"23/10/12","17:20",0.0,19.3,62.6,1014.2,333.9,1.3,3.2,327.5,0.00,12.0,20.0,"17:16:32",1
"23/10/12","17:30",0.0,19.0,64.3,1014.2,327.8,1.2,2.7,347.3,0.00,12.2,19.9,"17:21:52",1
"23/10/12","17:40",0.0,18.5,65.7,1014.2,312.2,1.3,2.6,337.8,0.00,12.0,20.0,"17:34:24",1
"23/10/12","17:50",0.0,18.3,66.7,1014.0,318.6,1.3,2.9,306.1,0.00,12.0,20.0,"17:40:48",1
"23/10/12","18:00",0.0,18.0,67.3,1014.5,309.3,1.6,3.3,325.2,0.00,11.9,19.8,"17:59:12",1
"23/10/12","18:10",0.0,17.9,67.4,1014.5,314.3,1.7,3.6,337.0,0.00,11.8,19.9,"18:04:40",1
"23/10/12","18:20",0.0,18.0,67.0,1014.7,326.3,2.0,3.4,334.4,0.00,11.8,19.5,"18:17:28",1
"23/10/12","18:30",0.0,17.8,67.1,1014.7,315.1,1.5,2.6,339.2,0.00,11.7,19.8,"18:21:52",1
"23/10/12","18:40",0.0,17.7,67.3,1014.9,316.2,2.0,4.1,329.9,0.00,11.6,19.5,"18:31:20",1
"23/10/12","18:50",0.0,17.4,67.8,1014.9,315.3,1.8,3.2,310.7,0.00,11.4,19.6,"18:46:40",1
"23/10/12","19:00",0.0,17.2,68.0,1014.9,314.3,1.7,2.5,310.1,0.00,11.3,19.7,"18:55:04",1
"23/10/12","19:10",0.0,17.1,68.2,1014.9,312.8,1.8,3.4,335.5,0.00,11.2,19.4,"19:08:56",1
"23/10/12","19:20",0.0,17.3,67.2,1015.2,317.5,2.3,3.7,338.3,0.00,11.2,19.4,"19:18:16",1
"23/10/12","19:30",0.0,17.4,65.9,1015.4,321.4,2.6,4.1,332.4,0.00,11.0,19.5,"19:28:24",1
"23/10/12","19:40",0.0,17.2,65.9,1015.4,322.6,2.2,3.9,328.7,0.00,10.8,19.4,"19:32:56",1
"23/10/12","19:50",0.0,17.0,66.0,1015.2,319.2,2.0,3.5,315.0,0.00,10.6,19.3,"19:41:36",1
"23/10/12","20:00",0.0,16.6,66.8,1015.6,316.3,1.6,3.2,324.4,0.00,10.4,19.4,"19:50:46",1
"23/10/12","20:10",0.0,15.8,69.1,1015.6,331.5,0.3,1.2,312.8,0.00,10.2,19.3,"20:00:08",1
"23/10/12","20:20",0.0,15.1,71.3,1015.4,312.8,1.1,2.1,323.1,0.00,10.0,19.3,"20:18:56",1
"23/10/12","20:30",0.0,14.2,73.3,1015.4,317.8,1.2,2.0,323.0,0.00,9.5,19.2,"20:28:28",1
"23/10/12","20:40",0.0,13.7,75.6,1015.6,310.6,1.3,1.9,319.2,0.00,9.5,19.2,"20:31:50",1
"23/10/12","20:50",0.0,13.5,77.7,1015.4,303.0,1.1,1.8,327.9,0.00,9.7,19.0,"20:41:34",1
"23/10/12","21:00",0.0,12.9,79.6,1015.6,297.7,1.1,1.4,310.7,0.00,9.5,18.9,"20:56:48",1
"23/10/12","21:10",0.0,12.5,80.9,1015.6,299.4,1.3,1.4,302.1,0.00,9.4,19.1,"21:00:08",1
"23/10/12","21:20",0.0,12.3,82.3,1015.4,302.3,1.5,1.7,306.3,0.00,9.4,19.0,"21:12:04",1
"23/10/12","21:30",0.0,12.6,83.3,1015.4,298.3,0.8,1.9,296.1,0.00,9.9,19.0,"21:20:26",1
"23/10/12","21:40",0.0,12.3,83.9,1015.4,295.5,1.2,1.8,316.4,0.00,9.7,18.8,"21:34:22",1
"23/10/12","21:50",0.0,12.1,84.5,1015.6,301.6,1.2,1.6,289.5,0.00,9.6,18.9,"21:48:40",1
"23/10/12","22:00",0.0,12.2,85.2,1015.2,301.1,1.1,1.7,314.2,0.00,9.8,18.7,"21:50:18",1
"23/10/12","22:10",0.0,11.8,85.7,1015.4,301.8,1.3,1.7,311.8,0.00,9.5,18.5,"22:00:46",1
"23/10/12","22:20",0.0,11.6,86.2,1015.6,304.3,1.7,2.2,324.6,0.00,9.4,18.5,"22:13:46",1
"23/10/12","22:30",0.0,11.6,86.8,1015.6,303.7,1.7,2.4,320.3,0.00,9.5,18.4,"22:23:32",1
"23/10/12","22:40",0.0,11.9,87.5,1015.4,319.7,2.0,2.9,313.1,0.00,9.9,18.5,"22:39:54",1
"23/10/12","22:50",0.0,12.1,87.7,1015.4,318.8,2.2,2.7,326.5,0.00,10.2,18.4,"22:44:46",1
"23/10/12","23:00",0.0,12.4,87.8,1015.9,309.2,2.0,2.2,315.2,0.00,10.5,18.3,"22:50:20",1
"23/10/12","23:10",0.0,12.8,87.2,1015.6,321.4,2.1,2.8,323.4,0.00,10.8,18.2,"23:03:24",1
"23/10/12","23:20",0.0,13.2,86.0,1015.4,321.3,2.1,3.2,334.6,0.00,11.0,18.4,"23:13:24",1
"23/10/12","23:30",0.0,13.2,85.0,1015.6,322.2,2.1,3.1,326.0,0.00,10.8,18.2,"23:21:42",1
"23/10/12","23:40",0.0,13.3,84.2,1015.9,321.3,2.1,2.7,327.1,0.00,10.7,18.2,"23:38:48",1
"23/10/12","23:50",0.0,13.2,83.7,1015.4,317.7,2.0,2.8,324.7,0.00,10.5,18.1,"23:41:28",1
"23/10/12","24:00",0.0,13.2,83.5,1015.4,323.1,2.2,3.2,336.0,0.00,10.5,18.2,"23:51:58",1
